Torna al catalogo

KUIPER-00159

AttivoComunicazioniLEO
NORAD 67764·PAYLOAD·🇺🇸 United States

Lanciato Feb 12, 2026 da Vandenberg Space Force Base

Loading…

Prossimi Passaggi (prossime 24 ore)

TLE

AggiornatoSource: CelesTrak SupGP

Epoca: Sep 14, 2026, 21:51 UTC

1 67764C 26030A   26257.91045139  .00005424  00000+0  76862-3 0  2578
2 67764  51.9016  47.4919 0000212 110.7205  44.5261 14.76568663    14

Traccia KUIPER-00159 in tempo reale con AllMySat

Download on the App Store